Regional Weather Roundup
Issued by NWS

Home | Current Version | Previous Version | Text Only | Print | Product List | Glossary Off
Versions: 1 2 3 4 5 6 7 8 9 10 11 12 13 14 15 16 17 18 19 20 21 22 23 24 25 26 27 28 29 30 31 32 33 34 35 36 37 38 39 40 41 42 43 44 45 46 47 48 49 50

000
ASUS45 KABQ 172210
RWRNM
WEATHER ROUNDUP FOR NEW MEXICO
NATIONAL WEATHER SERVICE ALBUQUERQUE NM
400 PM MDT THU APR 17 2014

NOTE: "FAIR" MEANS FEW OR NO CLOUDS BELOW 12,000 FEET AGL WITH NO
       SIGNIFICANT WEATHER OR OBSTRUCTIONS TO VISION.

      THIS PRODUCT IS RELEASED AS TWO VERSIONS.  ONE VERSION NEAR
      THE TOP OF THE HOUR CONTAINING PRELIMINARY DATA FROM ALBUQUERQUE
      AND OTHER STATIONS.  A FINAL VERSION WITH ADDITIONAL DATA IS
      ISSUED ABOUT 10 MINUTES AFTER THE HOUR.

NMZ501-503-504-510>518-172300-
NORTHWEST PLATEAU/NORTHCENTRAL MOUNTAINS

CITY           SKY/WX    TMP DP  RH WIND       PRES   REMARKS
FARMINGTON     SUNNY     68  16  13 NW13G20   30.07F
LOS ALAMOS     SUNNY     59  25  27 S15G24    30.16F
SANTA FE       SUNNY     63  27  25 SE13G24   30.13F
TAOS           MOSUNNY   61  25  25 SW16      30.14F
ANGEL FIRE     FAIR      47  38  70 S17       30.19S

$$
NMZ402-403-502-505>509-172300-
WESTCENTRAL MOUNTAINS/SOUTHWEST MOUNTAINS

CITY           SKY/WX    TMP DP  RH WIND       PRES   REMARKS
GALLUP         SUNNY     71  20  14 W9G18     30.10F
GRANTS         SUNNY     69  15  12 N13G18    30.12F
SILVER CITY    SUNNY     75  10   8 SW9G20    30.08F

$$
NMZ407-409-411-412-172300-
SOUTHERN DESERTS

CITY           SKY/WX    TMP DP  RH WIND       PRES   REMARKS
LORDSBURG      FAIR      81  14   8 W8        30.00F
DEMING         SUNNY     79  14   8 S7G17     30.01F
LAS CRUCES     SUNNY     78  21  12 S9G16     30.06F
HOLLOMAN AFB   MOSUNNY   76  20  12 W6        30.05F
ALAMOGORDO     MOSUNNY   77  21  12 W13       30.06F
T OR C         SUNNY     74  23  15 VRB6      30.05F

$$
NMZ519>523-172300-
CENTRAL VALLEYS/CENTRAL HIGHLANDS

CITY           SKY/WX    TMP DP  RH WIND       PRES   REMARKS
ALBUQUERQUE    PTSUNNY   68  23  18 N5        30.11F
DOUBLE EAGLE   MOSUNNY   64  25  22 SW6       30.12F
MORIARTY ARPT  FAIR      60  26  27 SE12G20   30.18F
CLINES CORNERS SUNNY     54  27  35 VRB6      30.19F
BELEN          FAIR      67  25  20 CALM      30.10F
SOCORRO        FAIR      72  22  15 E5        30.08F

$$
NMZ524>526-539-540-172300-
SOUTHCENTRAL MOUNTAINS

CITY           SKY/WX    TMP DP  RH WIND       PRES   REMARKS
RUIDOSO        SUNNY     59  27  29 SE16G24   30.21R

$$
NMZ527>531-172300-
NORTHEAST HIGHLANDS/NORTHEAST PLAINS

CITY           SKY/WX    TMP DP  RH WIND       PRES   REMARKS
LAS VEGAS      PTSUNNY   49  30  48 S9G16     30.20F
RATON          CLOUDY    46  34  62 SW10      30.18S
CLAYTON        CLOUDY    49  33  54 SE7       30.20F

$$
NMZ532>537-172300-
EASTCENTRAL PLAINS

CITY           SKY/WX    TMP DP  RH WIND       PRES   REMARKS
TUCUMCARI      MOSUNNY   61  34  36 VRB6G16   30.17F
CANNON AFB     SUNNY     62  32  32 N13       30.15F
CLOVIS AIRPORT SUNNY     63  34  34 NE10G21   30.18F

$$
NMZ028-029-538-172300-
SOUTHEAST PLAINS

CITY           SKY/WX    TMP DP  RH WIND       PRES   REMARKS
ROSWELL        SUNNY     72  30  21 N16       30.10F
ARTESIA        SUNNY     68  32  26 NE6       30.10F
CARLSBAD       SUNNY     74  29  19 VRB6      30.07F
HOBBS          SUNNY     72  34  25 NE13      30.10F


$$



USA.gov is the U.S. government's official web portal to all federal, state and local government web resources and services.